Location: Fauquembergues
(50.6005°N, 2.0987°E)
Time: 03:58:48
(UTC+00:00)

CZ-4C R/B - Pass Details

Date: 14 July 2020
Orbit: 463 x 636 km, 98.0° (Epoch: 06 August)

Event Time Altitude Azimuth Distance (km) Brightness Sun altitude
Exits shadow 01:11:26 20° 148° (SSE) 1,266 4.8 -15.9°
Maximum altitude 01:13:57 62° 73° (ENE) 585 3.6 -15.8°
Drops below altitude 10° 01:17:34 10° 352° (N) 1,704 6.8 -15.6°
Sets 01:19:36 0° 349° (N) 2,570 7.8 -15.5°
